Weather History for KDHT - March, 2012

Change the Weather History Date:

Friday, March 16, 2012

  Actual Average Record
Temperature  
Mean Temperature 58 °F 45 °F  
Max Temperature 84 °F 61 °F 85 °F (2011)
Min Temperature 32 °F 29 °F 9 °F (2005)
Degree Days  
Heating Degree Days 7 20  
Month to date heating degree days 248 348  
Since 1 July heating degree days 3679 3991  
Cooling Degree Days 0 0  
Month to date cooling degree days 0 0  
Year to date cooling degree days 0 0  
Growing Degree Days 7 (Base 50)    
Moisture  
Dew Point 13 °F    
Average Humidity 33    
Maximum Humidity 61    
Minimum Humidity 4    
Precipitation  
Precipitation 0.00 in 0.04 in 0.52 in (1998)
Month to date precipitation 0.08 0.52  
Year to date precipitation 0.15 1.44  
Snow  
Snow 0.00 in 0.20 in 2.00 in (1998)
Month to date snowfall 0.0 2.1  
Since 1 July snowfall 8.3 15.6  
Snow Depth 0.00 in    
Sea Level Pressure  
Sea Level Pressure 29.83 in    
Wind  
Wind Speed 12 mph (SW)    
Max Wind Speed 26 mph    
Max Gust Speed 31 mph    
Visibility 9 miles    
Events      
T = Trace of Precipitation, MM = Missing Value Source: NWS Daily Summary

Daily Weather History Graph

Daily Weather History Graph

Search for Another Location

Airport or City:

Trip Planner

Search our weather history database for the weather conditions in past years. The results will help you decide how hot, cold, wet, or windy it might be!

Date:

Astronomy

Mar. 16, 2012 Rise Set
Actual Time 7:58 AM CDT 7:59 PM CDT
Civil Twilight 7:33 AM CDT 8:24 PM CDT
Nautical Twilight 7:03 AM CDT 8:54 PM CDT
Astronomical Twilight 6:33 AM CDT 9:24 PM CDT
Moon 4:08 AM CDT (3/16) 2:30 PM CDT (3/16)
Length of Visible Light 12h 51m
Length of Day
12h 00m
Waning Crescent, 32% of the Moon is Illuminated
Mar 16
Waning Crescent
Mar 22
New
Mar 30
First Quarter
Apr 6
Full
Apr 13
Last Quarter

Hourly Weather History & Observations

Time (CDT) Temp. Windchill Dew Point Humidity Pressure Visibility Wind Dir Wind Speed Gust Speed Precip Events Conditions
12:53 AM 52.0 °F - 18.0 °F 26% 29.91 in 10.0 mi SE 3.5 mph - N/A   Clear
1:53 AM 48.0 °F - 19.9 °F 33% 29.91 in 10.0 mi Calm Calm - N/A   Clear
2:53 AM 48.0 °F - 21.0 °F 34% 29.89 in 10.0 mi Calm Calm - N/A   Clear
3:53 AM 44.1 °F 41.5 °F 19.9 °F 38% 29.88 in 10.0 mi SW 4.6 mph - N/A   Clear
4:53 AM 34.0 °F 26.6 °F 21.9 °F 61% 29.90 in 10.0 mi SSW 9.2 mph - N/A   Clear
5:53 AM 42.1 °F 38.4 °F 17.1 °F 37% 29.88 in 10.0 mi WSW 5.8 mph - N/A   Clear
6:53 AM 35.1 °F 30.1 °F 17.1 °F 48% 29.90 in 10.0 mi SSW 5.8 mph - N/A   Clear
7:53 AM 32.0 °F 23.6 °F 18.0 °F 56% 29.92 in 10.0 mi SSW 10.4 mph - N/A   Clear
8:53 AM 46.0 °F 41.9 °F 19.0 °F 34% 29.91 in 10.0 mi West 8.1 mph - N/A   Clear
9:53 AM 55.9 °F - 19.9 °F 25% 29.91 in 10.0 mi WSW 9.2 mph - N/A   Clear
10:53 AM 66.0 °F - 17.1 °F 15% 29.89 in 10.0 mi SW 12.7 mph - N/A   Clear
11:53 AM 73.9 °F - 14.0 °F 10% 29.86 in 10.0 mi SSW 15.0 mph 21.9 mph N/A   Clear
12:53 PM 78.1 °F - 9.0 °F 7% 29.83 in 10.0 mi SSW 16.1 mph - N/A   Clear
1:53 PM 81.0 °F - 3.9 °F 5% 29.81 in 10.0 mi South 16.1 mph 25.3 mph N/A   Clear
2:53 PM 82.0 °F - 5.0 °F 5% 29.77 in 10.0 mi SSW 21.9 mph 28.8 mph N/A   Clear
3:53 PM 82.9 °F - 1.0 °F 4% 29.73 in 10.0 mi SW 20.7 mph 27.6 mph N/A   Clear
4:53 PM 82.9 °F - -0.9 °F 4% 29.74 in 10.0 mi SSW 19.6 mph 31.1 mph N/A   Clear
5:53 PM 82.0 °F - 1.0 °F 4% 29.71 in 10.0 mi WSW 17.3 mph 21.9 mph N/A   Clear
6:53 PM 80.1 °F - 5.0 °F 6% 29.72 in 10.0 mi SW 21.9 mph - N/A   Clear
7:53 PM 69.1 °F - 8.1 °F 9% 29.76 in 10.0 mi WSW 11.5 mph - N/A   Clear
8:53 PM 57.0 °F - 12.0 °F 17% 29.77 in 3.0 mi SW 10.4 mph - N/A   Haze
9:02 PM 55.4 °F - 12.2 °F 18% 29.84 in 2.5 mi SW 9.2 mph - N/A   Haze
9:13 PM 53.6 °F - 12.2 °F 19% 29.85 in 4.0 mi WSW 11.5 mph - N/A   Haze
9:53 PM 53.1 °F - 12.9 °F 20% 29.77 in 6.0 mi SW 9.2 mph - N/A   Haze
10:53 PM 50.0 °F - 14.0 °F 24% 29.78 in 10.0 mi SW 11.5 mph - N/A   Clear
11:29 PM 53.6 °F - 12.2 °F 19% 29.89 in 10.0 mi South 16.1 mph - N/A   Clear
11:53 PM 55.9 °F - 28.0 °F 34% 29.76 in 10.0 mi South 17.3 mph - N/A   Clear